Flag for Mexico Weather past 2 weeks in Tijuana, Baja California, Mexico

Now
79 °F

Passing clouds.


Feels Like: 80 °F
Forecast: 67 / 80 °F
Wind: 18 mph from West

Location: Tijuana International Airport

Current Time: Aug 3, 2015 at 3:00:51 PM

Latest Report: Aug 3, 2015 at 1:46 PM


Visibility: 8 mi

Pressure: 29.94 "Hg

Humidity: 51%

Dew point: 59 °F

Location of TijuanaLocation

Historic Weather in Tijuana — Graph

°F

Tijuana temperature yesterday

Maximum temperature yesterday: 79 °F (at 2:46 PM)
Minimum temperature yesterday: 66 °F (at 8:51 PM)
Average temperature yesterday: 72 °F

Past Weeks' High & Low Weather Summary

 TemperatureHumidityPressure
High84 °F (Jul 25, 12:47 PM)94% (Jul 19, 3:34 PM)30.10 "Hg (Jul 19, 3:34 PM)
Low64 °F (Jul 27, 10:45 PM)37% (Jul 25, 6:46 PM)29.87 "Hg (Aug 2, 6:45 PM)
Average72 °F70%29.98 "Hg
* Reported Jul 19 2:01 PM — Aug 3 1:46 PM, Tijuana, Weather by CustomWeather, © 2015

Note: Actual official high and low records may vary slightly from our data, if they occured in-between our weather recording intervals... More about our weather records

Advertising

Tijuana weather history for previous 24 hours

 ConditionsComfort  
Time TempWeatherWind HumidityBarometerVisibility
1:46 PM
Mon, Aug 3
79 °FPassing clouds.18 mph51%29.94 "Hg8 mi
12:46 PM81 °FPassing clouds.9 mph45%29.93 "Hg8 mi
10:46 AM75 °FSunny.No wind57%29.96 "Hg7 mi
9:26 AM70 °FPassing clouds.5 mph73%29.94 "Hg6 mi
6:50 AM66 °FLow clouds.5 mph78%29.92 "Hg4 mi
5:51 AM66 °FLow clouds.No wind83%29.91 "Hg4 mi
3:50 AM68 °FOvercast.No wind78%29.90 "Hg6 mi
2:45 AM68 °FOvercast.No wind78%29.90 "Hg6 mi
1:49 AM68 °FOvercast.No wind78%29.90 "Hg6 mi
12:52 AM68 °FOvercast.No wind78%29.90 "Hg6 mi
9:52 PM
Sun, Aug 2
68 °FOvercast.No wind78%29.90 "Hg6 mi
8:51 PM66 °FPassing clouds.7 mph83%29.88 "Hg7 mi
7:52 PM68 °FSunny.10 mph73%29.88 "Hg8 mi
6:45 PM73 °FSunny.9 mph65%29.87 "Hg8 mi
5:49 PM73 °FSunny.12 mph61%29.88 "Hg8 mi
4:48 PM75 °FSunny.12 mph61%29.88 "Hg8 mi
3:47 PM75 °FSunny.14 mph61%29.89 "Hg7 mi
Weather by CustomWeather, © 2015

See weather overviewHow to use our weather pages